Regional Weather Roundup
Issued by NWS Newport/Morehead, NC

Current Version | Previous Version | Graphics & Text | Print | Product List | Glossary Off
Versions: 1 2 3 4 5 6 7 8 9 10 11 12 13 14 15 16 17 18 19 20 21 22 23 24 25 26 27 28 29 30 31 32 33 34 35 36 37 38 39 40 41 42 43 44 45 46 47 48 49 50

000
ASUS42 KMHX 200925
RWRMHX
WEATHER ROUNDUP FOR EASTERN NORTH CAROLINA
NATIONAL WEATHER SERVICE NEWPORT/MOREHEAD CITY NC
500 AM EDT SUN MAY 20 2018

NOTE: "FAIR" INDICATES FEW OR NO CLOUDS BELOW 12,000 FEET
WITH NO SIGNIFICANT WEATHER AND/OR OBSTRUCTIONS TO VISIBILITY

NCZ015>017-031-032-045>047-102-103-201000-
NORTH COAST

CITY           SKY/WX    TMP DP  RH WIND       PRES   REMARKS
EDENTON        NOT AVBL
ELIZABETH CITY FAIR      75  72  90 S14       30.12F
KITTY HAWK     FAIR      74  70  87 SW7       30.14R
MANTEO         FAIR      74  71  88 SW14      30.15S

$$

NCZ045>047-081-094-103-104-201000-
CENTRAL COAST

CITY           SKY/WX    TMP DP  RH WIND       PRES   REMARKS
FRISCO         CLOUDY    72  70  93 SW9       30.17R FOG

$$

NCZ095-097-098-100-101-201000-
SOUTHERN COAST

CITY           SKY/WX    TMP DP  RH WIND       PRES   REMARKS
BEAUFORT       MOCLDY    74  72  93 S9        30.16S
CEDAR ISLAND   NOT AVBL
JACKSONVILLE   MOCLDY    73  73 100 S6        30.13F
PINEY ISLAND   NOT AVBL
WILMINGTON     MOCLDY    73  70  90 CALM      30.14S


$$

NCZ011>013-027>030-043-044-078>080-089-090>093-098-201000-
COASTAL PLAIN

CITY           SKY/WX    TMP DP  RH WIND       PRES   REMARKS
AHOSKIE        MOCLDY    69  69 100 S5        30.12S
CLINTON        CLOUDY    70  70 100 CALM      30.14S
ELIZABETHTOWN  FOG       68  68  99 SE6       30.13F VSB 1/2
GOLDSBORO      CLOUDY   N/A N/A N/A S3        30.13R
GREENVILLE     CLOUDY    72  72 100 SW5       30.15S
HAVELOCK       NOT AVBL
KENANSVILLE    MOCLDY    70  70 100 S3        30.14S
KINSTON        LGT RAIN  72  70  95 S12       30.15R
NEW BERN       MOCLDY    72  71  97 S7        30.16S FOG
RICHLANDS      CLOUDY    70  70 100 SW5       30.15S
ROCKY MOUNT    CLOUDY    70  69  97 S8        30.13R
WASHINGTON     CLOUDY    73  71  95 CALM      30.14S
WHITEVILLE     MOCLDY    69  68  98 CALM      30.13S

$$

AMZ130-135-150-152-154-156-158-170-250-252-270-ANZ085-086-088-633-658-670-201000-
MARINE OBSERVATIONS

STATION/POSITION TIME  TEMP    WIND        PRES    WAVE   SWELL
                       AIR SEA DIR/SP/G            HT/PER HT/PER
                 (UTC) (F)     (DEG/KT/KT) (MB)    (FT/S) (FT/S)
CHESAPEAKE LIGHT NOT AVBL
64 E VA BEACH    0850   66 62  200/ 12/ 14 1021.0    6/ 7   5/ 7
DUCK             0900   74 59  200/ 12/ 18 1019.9
2 E DUCK         0900      60                N/A     3/ 7
OREGON INLET     0854   76 75  200/ 20/ 24 1020.7
13E OREGON INLT  0848      65                N/A     5/ 7   2/13
HATTERAS CG      0900   73 75  190/  3/  8 1021.2
DIAMOND BUOY     0910   77 75  210/ 16/ 19 1022.1
CAPE LOOKOUT     0900          190/  9/ 11 1021.6
BEAUFORT LAB     0900   74 76  190/ 10/ 12 1021.4
30 SE NEW RVR IN 0908   76     190/ 12/ 16 1021.4
30 SE NEW RVR IN 0900      75                N/A     8/ 8
27 SE WRIGHTSVLE 0908   74 73  190/  8/ 12 1021.1
5 SE WRIGHTSVLE  NOT AVBL
225 S CAPE HAT   0910      76  160/ 16/ 19 1022.7
41 SE CHARLESTON 0900      74   CALM  /  4 1020.5

$$




USA.gov is the U.S. government's official web portal to all federal, state and local government web resources and services.